EB5EEV-5 Weather Reports


Display with metric or nautical units.
time (UTC)temp
F
wind
direction
speed
MPH
gust
MPH
rain 1hr
in
rain 24hr
in
rain mn
in
humidity
%
barometer
mb
20260506030237 63 0 0.0 1.0 0.00 0.00 0.00 8 1007.8
20260506024934 63 0 0.0 0.0 0.00 0.00 0.00 8 1007.9
20260506023516 63 133 2.0 2.0 0.00 0.00 0.00 8 1007.9
20260506022051 63 130 1.0 2.0 0.00 0.00 0.00 8 1008.0
20260506020656 64 0 0.0 1.0 0.00 0.00 0.00 8 1008.0
20260506015246 64 0 0.0 2.0 0.00 0.00 0.00 8 1007.9
20260506014018 64 0 0.0 1.0 0.00 0.00 0.00 8 1008.0
20260506012806 64 126 1.0 1.0 0.00 0.00 0.00 8 1008.1
20260506011512 64 124 1.0 2.0 0.00 0.00 0.00 8 1008.1
20260506010126 64 124 1.0 2.0 0.00 0.00 0.00 8 1008.1
20260506004818 64 152 1.0 2.0 0.00 0.00 0.00 7 1008.3
20260506003559 64 127 1.0 2.0 0.00 0.00 0.00 8 1008.4
20260506002401 64 146 1.0 2.0 0.00 0.00 0.00 8 1008.5
20260506001036 64 163 2.0 2.0 0.00 0.00 0.00 8 1008.5
20260505235541 64 157 2.0 4.0 0.00 0.00 0.00 8 1008.5
20260505234241 64 116 9.0 9.0 0.00 0.00 0.00 8 1008.4
20260505232854 64 143 5.0 9.0 0.00 0.00 0.00 8 1008.4
20260505231611 64 143 5.0 9.0 0.00 0.00 0.00 8 1008.4
20260505230140 64 128 3.0 6.0 0.00 0.00 0.00 8 1008.4
20260505224925 64 133 6.0 13.0 0.00 0.00 0.00 8 1008.3
20260505223701 65 155 4.0 11.0 0.00 0.00 0.00 8 1008.0
20260505222256 65 131 4.0 10.0 0.00 0.00 0.00 8 1007.7
20260505220901 66 113 7.0 10.0 0.00 0.00 0.00 8 1007.7
20260505215611 69 83 3.0 10.0 0.00 0.00 0.00 5 1007.3
20260505214132 69 121 6.0 9.0 0.00 0.00 0.00 5 1006.9
20260505212929 70 97 2.0 4.0 0.00 0.00 0.00 5 1006.8
20260505211533 70 153 3.0 7.0 0.00 0.00 0.00 4 1006.7
20260505210121 70 153 3.0 7.0 0.00 0.00 0.00 4 1006.7
20260505204819 70 143 2.0 4.0 0.00 0.00 0.00 4 1006.6
20260505203556 71 151 4.0 9.0 0.00 0.00 0.00 4 1006.7
20260505202159 71 136 2.0 3.0 0.00 0.00 0.00 4 1006.5
20260505200715 71 0 0.0 1.0 0.00 0.00 0.00 5 1006.3
20260505195331 71 0 0.0 1.0 0.00 0.00 0.00 5 1006.1
20260505194056 71 0 0.0 0.0 0.00 0.00 0.00 5 1006.0
20260505192631 71 0 0.0 0.0 0.00 0.00 0.00 5 1005.9
20260505191348 71 0 0.0 0.0 0.00 0.00 0.00 6 1005.8
20260505185946 72 0 0.0 0.0 0.00 0.00 0.00 6 1005.5
20260505184701 72 0 0.0 0.0 0.00 0.00 0.00 6 1005.5
20260505183326 72 116 1.0 1.0 0.00 0.00 0.00 6 1005.5
20260505182101 72 0 0.0 2.0 0.00 0.00 0.00 6 1005.4
20260505180701 72 309 1.0 3.0 0.00 0.00 0.00 6 1005.3
20260505175300 73 349 4.0 5.0 0.00 0.00 0.00 6 1005.3
20260505173903 73 355 3.0 6.0 0.00 0.00 0.00 6 1005.2
20260505172547 74 353 4.0 12.0 0.00 0.00 0.00 5 1005.0
20260505171245 74 297 7.0 9.0 0.00 0.00 0.00 5 1004.9
20260505165941 75 31 6.0 12.0 0.00 0.00 0.00 5 1005.1
20260505164714 75 31 6.0 12.0 0.00 0.00 0.00 5 1005.1
20260505163252 76 326 4.0 10.0 0.00 0.00 0.00 5 1005.2
20260505162033 76 18 4.0 6.0 0.00 0.00 0.00 5 1005.1
20260505160631 75 328 5.0 7.0 0.00 0.00 0.00 5 1005.1
20260505152611 77 265 3.0 6.0 0.00 0.00 0.00 5 1005.1
20260505151211 76 255 3.0 6.0 0.00 0.00 0.00 5 1005.4
20260505124641 74 313 6.0 8.0 0.00 0.00 0.00 6 1006.9
20260505123439 73 353 5.0 7.0 0.00 0.00 0.00 6 1006.9
20260505122151 73 301 6.0 9.0 0.00 0.00 0.00 6 1007.1
20260505120700 74 321 2.0 5.0 0.00 0.00 0.00 6 1007.1
20260505115301 73 85 2.0 4.0 0.00 0.00 0.00 6 1007.3
20260505114034 73 320 6.0 7.0 0.00 0.00 0.00 6 1007.4
20260505112538 72 221 3.0 3.0 0.00 0.00 0.00 6 1007.6
20260505111332 72 312 6.0 6.0 0.00 0.00 0.00 6 1007.8
20260505101144 73 322 1.0 3.0 0.00 0.00 0.00 5 1007.9
20260505095902 73 0 0.0 3.0 0.00 0.00 0.00 5 1007.8
20260505094507 72 239 1.0 3.0 0.00 0.00 0.00 5 1007.8
20260505093207 72 239 1.0 3.0 0.00 0.00 0.00 5 1007.8
20260505091835 72 252 2.0 2.0 0.00 0.00 0.00 5 1007.7
20260505090640 72 0 0.0 0.0 0.00 0.00 0.00 5 1007.9
20260505085441 71 0 0.0 1.0 0.00 0.00 0.00 5 1008.1
20260505084203 70 285 1.0 1.0 0.00 0.00 0.00 5 1008.1
20260505082833 70 0 0.0 0.0 0.00 0.00 0.00 6 1008.2
20260505081400 69 0 0.0 2.0 0.00 0.00 0.00 6 1008.2
20260505080138 69 0 0.0 2.0 0.00 0.00 0.00 6 1008.2
20260505074914 69 0 0.0 0.0 0.00 0.00 0.00 6 1008.1
20260505073712 67 0 0.0 1.0 0.00 0.00 0.00 6 1008.1
20260505072223 65 0 0.0 0.0 0.00 0.00 0.00 7 1008.1
20260505070954 64 0 0.0 0.0 0.00 0.00 0.00 7 1008.0
20260505065650 64 0 0.0 0.0 0.00 0.00 0.00 7 1008.1
20260505064232 61 0 0.0 0.0 0.00 0.00 0.00 8 1008.0
20260505062929 60 0 0.0 0.0 0.00 0.00 0.00 8 1008.0
20260505061714 60 0 0.0 0.0 0.00 0.00 0.00 8 1008.0
20260505060327 60 0 0.0 0.0 0.00 0.00 0.00 8 1007.8
20260505054931 59 0 0.0 0.0 0.00 0.00 0.00 8 1008.0
20260505053622 59 0 0.0 0.0 0.00 0.00 0.00 8 1008.0
20260505052402 59 0 0.0 0.0 0.00 0.00 0.00 9 1007.9
20260505051012 59 0 0.0 1.0 0.00 0.00 0.00 8 1007.7
20260505041652 60 0 0.0 0.0 0.00 0.00 0.00 9 1007.8
20260505040407 60 0 0.0 0.0 0.00 0.00 0.00 9 1007.8
20260505034942 60 0 0.0 0.0 0.00 0.00 0.00 9 1007.9
20260505033547 60 0 0.0 0.0 0.00 0.00 0.00 9 1007.9
20260505032222 61 0 0.0 0.0 0.00 0.00 0.00 9 1007.9